Resia Pass, Italy

4:06 AM CEST on April 28, 2017 (GMT +0200)
Resia Pass

Weather History for LIVE - July, 2013

Change the Weather History Date:

Monday, July 22, 2013

  Actual Average Record
Temperature  
Mean Temperature 66 °F -  
Max Temperature 78 °F 68 °F 86 °F (2006)
Min Temperature 53 °F 49 °F 42 °F (2000)
Growing Degree Days 16 (Base 50)    
Moisture  
Dew Point 49 °F    
Average Humidity 73    
Maximum Humidity 100    
Minimum Humidity 14    
Precipitation  
Precipitation 0.00 in - - ()
Sea Level Pressure  
Sea Level Pressure 30.22 in    
Wind  
Wind Speed 4 mph ()    
Max Wind Speed 7 mph    
Max Gust Speed 18 mph    
Visibility 6.0 miles    
Events Rain , Thunderstorm    
Averages and records for this station are not official NWS values.
T = Trace of Precipitation, MM = Missing Value Source: Averaged Metar Reports

Daily Weather History Graph

Daily Weather History Graph

Search for Another Location

Airport or City:

Trip Planner

Search our weather history database for the weather conditions in past years. The results will help you decide how hot, cold, wet, or windy it might be!

Date:

Astronomy

Jul. 22, 2013 Rise Set
Actual Time 5:46 AM CEST 9:02 PM CEST
Civil Twilight 5:09 AM CEST 9:38 PM CEST
Nautical Twilight 4:21 AM CEST 10:26 PM CEST
Astronomical Twilight 3:20 AM CEST 11:26 PM CEST
Moon 8:29 PM CEST (7/22) 5:25 AM CEST (7/22)
Length of Visible Light 16h 29m
Length of Day
15h 15m
Full, 100% of the Moon is Illuminated
Jul 22
Full
Jul 22
Full
Jul 29
Last Quarter
Aug 6
New
Aug 14
First Quarter

Hourly Weather History & Observations

Time (CEST) Temp. Dew Point Humidity Pressure Visibility Wind Dir Wind Speed Gust Speed Precip Events Conditions
12:55 AM 57.2 °F 55.4 °F 94% 30.27 in - Calm Calm - N/A   Clear
1:55 AM 55.4 °F 55.4 °F 100% 30.27 in - North 3.5 mph - N/A   Clear
3:55 AM 57.2 °F 55.4 °F 94% 30.24 in - North 5.8 mph - N/A   Clear
5:00 AM 57.2 °F 55.4 °F 94% 30.24 in - NNE 4.6 mph - N/A   Clear
5:55 AM 53.6 °F 51.8 °F 94% 30.24 in - North 5.8 mph - N/A   Clear
6:55 AM 53.6 °F 53.6 °F 100% 30.24 in - North 4.6 mph - N/A   Clear
7:55 AM 53.6 °F 53.6 °F 100% 30.24 in - North 5.8 mph - N/A   Clear
8:55 AM 57.2 °F 55.4 °F 94% 30.24 in - NNW 5.8 mph - N/A   Clear
9:55 AM 59.0 °F 51.8 °F 77% 30.24 in - NNW 4.6 mph - N/A   Clear
10:55 AM 64.4 °F 50.0 °F 59% 30.21 in - NNW 4.6 mph - N/A   Clear
11:55 AM 69.8 °F 44.6 °F 40% 30.21 in 6.2 mi South 3.5 mph - N/A   Partly Cloudy
12:55 PM 71.6 °F 46.4 °F 41% 30.21 in 6.2 mi SW 3.5 mph - N/A   Partly Cloudy
2:55 PM 78.8 °F 30.2 °F 17% 30.15 in 6.2 mi North 6.9 mph - N/A   Partly Cloudy
3:55 PM 78.8 °F 24.8 °F 14% 30.15 in 6.2 mi North 4.6 mph - N/A   Scattered Clouds
4:55 PM 75.2 °F 35.6 °F 24% 30.12 in 6.2 mi SE 4.6 mph - N/A Thunderstorm Thunderstorm
5:55 PM 71.6 °F 42.8 °F 35% 30.15 in 6.2 mi SSE 6.9 mph - N/A Thunderstorm Thunderstorm
6:55 PM 60.8 °F 55.4 °F 82% 30.18 in - North 6.9 mph 18.4 mph N/A Thunderstorm Heavy Thunderstorms with Small Hail
7:55 PM 57.2 °F 53.6 °F 88% 30.24 in 5.0 mi NNE 4.6 mph - N/A Rain , Thunderstorm Light Thunderstorms and Rain
8:55 PM 57.2 °F 53.6 °F 88% 30.24 in 5.0 mi SE 4.6 mph - N/A Rain , Thunderstorm Light Thunderstorms and Rain
9:55 PM 55.4 °F 51.8 °F 88% 30.24 in 6.2 mi NE 3.5 mph - N/A   Scattered Clouds
10:55 PM 53.6 °F 51.8 °F 94% 30.24 in 6.2 mi NNE 3.5 mph - N/A   Scattered Clouds
11:55 PM 53.6 °F 51.8 °F 94% 30.24 in 6.2 mi North 3.5 mph - N/A   Partly Cloudy